Weather History for TJPS - October, 2012

Change the Weather History Date:

Monday, October 8, 2012

  Actual Average Record
Temperature  
Mean Temperature 86 °F -  
Max Temperature 93 °F 89 °F 93 °F (1996)
Min Temperature 78 °F 73 °F 71 °F (2001)
Cooling Degree Days 20    
Growing Degree Days 36 (Base 50)    
Moisture  
Dew Point 76 °F    
Average Humidity 74    
Maximum Humidity 89    
Minimum Humidity 59    
Precipitation  
Precipitation 0.00 in - - ()
Sea Level Pressure  
Sea Level Pressure 29.97 in    
Wind  
Wind Speed 5 mph (ESE)    
Max Wind Speed 14 mph    
Max Gust Speed -    
Visibility 10 miles    
Events Thunderstorm    
Averages and records for this station are not official NWS values.
T = Trace of Precipitation, MM = Missing Value Source: NWS Daily Summary

Daily Weather History Graph

Daily Weather History Graph

Search for Another Location

Airport or City:

Trip Planner

Search our weather history database for the weather conditions in past years. The results will help you decide how hot, cold, wet, or windy it might be!

Date:

Astronomy

Oct. 08, 2012 Rise Set
Actual Time 6:18 AM AST 6:08 PM AST
Civil Twilight 5:56 AM AST 6:30 PM AST
Nautical Twilight 5:31 AM AST 6:55 PM AST
Astronomical Twilight 5:05 AM AST 7:21 PM AST
Moon No Moon Rise 1:03 PM AST (10/8)
Length of Visible Light 12h 34m
Length of Day
11h 50m
Waning Gibbous, 46% of the Moon is Illuminated
Oct 8
Waning Gibbous
Oct 15
New
Oct 21
First Quarter
Oct 29
Full
Nov 6
Last Quarter

Hourly Weather History & Observations

Time (AST) Temp. Heat Index Dew Point Humidity Pressure Visibility Wind Dir Wind Speed Gust Speed Precip Events Conditions
12:50 AM 78.8 °F - 73.4 °F 83% 29.96 in 10.0 mi Calm Calm - N/A   Partly Cloudy
1:50 AM 78.8 °F - 73.4 °F 83% 29.94 in 10.0 mi Calm Calm - N/A   Scattered Clouds
3:50 AM 78.8 °F - 73.4 °F 83% 29.95 in 10.0 mi Calm Calm - N/A   Mostly Cloudy
4:58 AM 78.8 °F - 73.4 °F 83% 29.93 in 10.0 mi Calm Calm - N/A   Mostly Cloudy
7:50 AM 84.2 °F 94.1 °F 77.0 °F 79% 29.98 in 10.0 mi ENE 5.8 mph - N/A   Mostly Cloudy
9:50 AM 87.8 °F 102.5 °F 78.8 °F 75% 30.00 in 10.0 mi East 9.2 mph - N/A   Mostly Cloudy
10:58 AM 91.4 °F 107.2 °F 78.8 °F 66% 30.00 in 10.0 mi South 13.8 mph - N/A   Mostly Cloudy
11:35 AM 91.4 °F 107.2 °F 78.8 °F 66% 30.00 in 10.0 mi SE 11.5 mph - N/A Thunderstorm Thunderstorm
11:50 AM 91.4 °F 107.2 °F 78.8 °F 66% 30.00 in 10.0 mi South 13.8 mph - N/A Thunderstorm Thunderstorm
12:50 PM 93.2 °F 107.2 °F 77.0 °F 59% 29.97 in 10.0 mi SSE 11.5 mph - N/A Thunderstorm Thunderstorm
1:25 PM 93.2 °F 107.2 °F 77.0 °F 59% 29.96 in 10.0 mi South 11.5 mph - N/A   Mostly Cloudy
1:50 PM 93.2 °F 107.2 °F 77.0 °F 59% 29.96 in 10.0 mi South 9.2 mph - N/A   Mostly Cloudy
2:50 PM 82.4 °F 88.2 °F 73.4 °F 74% 29.97 in 10.0 mi ENE 5.8 mph - N/A   Mostly Cloudy
3:50 PM 82.4 °F 88.2 °F 73.4 °F 74% 29.95 in 10.0 mi NNE 5.8 mph - N/A   Mostly Cloudy
5:50 PM 84.2 °F 92.3 °F 75.2 °F 74% 29.97 in 10.0 mi NE 5.8 mph - N/A   Scattered Clouds
6:50 PM 82.4 °F 89.5 °F 75.2 °F 79% 29.97 in 10.0 mi NNE 5.8 mph - N/A   Scattered Clouds
7:50 PM 80.6 °F 85.4 °F 73.4 °F 79% 29.97 in 10.0 mi NE 5.8 mph - N/A   Partly Cloudy
10:58 PM 78.8 °F - 75.2 °F 89% 30.01 in 10.0 mi Calm Calm - N/A   Mostly Cloudy
11:50 PM 78.8 °F - 73.4 °F 83% 30.01 in 10.0 mi Calm Calm - N/A   Mostly Cloudy